METEOR 1-22

Satellite information

Favourite Embed

Satellite Type and Status

PAYLOADIN ORBIT

Key statistics

Satellite METEOR 1-22 at a glance.

Uptime

18349

Days in orbit

Revolutions

≈ 14.1

Per day

Orbit

LEO

Low Earth Orbit

Inclination

81.3

Latest

Satellite identification and parameters

Extended collection of information and parameters for METEOR 1-22.

Object identification

Identified? True

Debris? False

Object name: METEOR 1-22

International designator: 1975-087A

Object number (NORAD): 8293

Object ID (CCSDS): 8293

Country: COMMONWEALTH OF INDEPENDENT STATES (CIS)

Current information (Y/N): Y

RCS size: LARGE

Orbital parameters

Period: 101.919 minutes

Inclination: 81.2548 deg

SMA: 7227.664 km

Apoapsis: 904.074 km

Periapsis: 794.983 km

RAAN: 167.9152 deg

Eccentricy: 0.00754677

Argument of periapsis: 138.7152 deg

Mean anomaly: 221.9761 deg

Mean motion: 14.12881891 rev/day

Mean motion (dot): 0.00000264 rev/day2

B* drag term: 0.00013100032 1/REarth

Two-line elements (TLE)

Creation date: Dec. 12, 2025, 10:14 a.m.

Reference frame: TEME

Reference center: EARTH

Epoch: Dec. 12, 2025, 6:19 a.m. UTC

TLE line 0: 0 METEOR 1-22

TLE line 1: 1 08293U 75087A 25346.26353578 .00000264 00000-0 13100-3 0 9998

TLE line 2: 2 08293 81.2548 167.9152 0075468 138.7152 221.9761 14.12881891586673

Live tracking on map

Real-time ground track for satellite METEOR 1-22.

In-orbit conjunctions

A list of the most updated potential collisions computed for object METEOR 1-22.

Target Orbit TCA Probability of collision Miss distance Type
FENGYUN 1C DEB SSO 2025-12-12 07:35:15 0.0002467934 873.0 (m) DEBRIS
COSMOS 1375 DEB LEO 2025-03-11 11:40:16 0.0001798188 333.0 (m) DEBRIS
FENGYUN 1C DEB SSO 2025-02-02 19:04:08 0.0001174104 813.0 (m) DEBRIS
CZ-6A DEB SSO 2025-01-22 14:26:25 0.0003028485 562.0 (m) DEBRIS
FENGYUN 1C DEB SSO 2024-10-01 13:30:44 0.0001773514 765.0 (m) DEBRIS

Associated space launch

The Meteor-1 series was the first series of Soviet meteorological satellites.

METEOR 1-22 was lifted into orbit during the mission ‘Vostok 8A92M | Meteor-1 22 (28L)’, on board a Vostok 8A92M space rocket.

The launch took place on Sept. 18, 1975, 12:12 a.m. from 41/1.

For more information about the launch, click the button.

Launch to space Vostok 8A92M | Meteor-1 22 (28L)
Vostok 8A92M | Meteor-1 22 (28L)

Agency: N/A

Status: Launch Successful

Launch date: Sept. 18, 1975, 12:12 a.m. UTC

Rocket: Vostok 8A92M

Launch pad: 41/1

Location: Plesetsk Cosmodrome, Russian Federation

...

Latest news about this satellite

There are no fresh news available about this satellite. Check back as we update our databases every day.


Newsletter sign-up

Weekly statistics, charts and insights to help you stay on top of the space industry.